Time,TemperatureF,DewpointF,PressureIn,WindDirection,WindDirectionDegrees,WindSpeedMPH,WindSpeedGustMPH,Humidity,HourlyPrecipIn,Conditions,Clouds,dailyrainin,SoftwareType,DateUTC
2013-02-05 00:02:00,-8.0,-12.0,29.96,WSW,252,0.0,-999.0,83,-99.99,,,-99.99,,2013-02-05 05:02:00,
2013-02-05 00:11:00,-8.0,-12.0,29.96,WSW,252,0.0,-999.0,83,-99.99,,,-99.99,,2013-02-05 05:11:00,
2013-02-05 00:21:00,-8.0,-12.0,29.95,WSW,252,0.0,-999.0,84,-99.99,,,-99.99,,2013-02-05 05:21:00,
2013-02-05 00:32:00,-8.0,-12.0,29.94,WSW,252,0.0,-999.0,84,-99.99,,,-99.99,,2013-02-05 05:32:00,
2013-02-05 00:42:00,-8.0,-12.0,29.94,WSW,252,0.0,-999.0,84,-99.99,,,-99.99,,2013-02-05 05:42:00,
2013-02-05 00:52:00,-7.0,-10.0,29.94,WSW,252,0.0,-999.0,86,-99.99,,,-99.99,,2013-02-05 05:52:00,
2013-02-05 01:01:00,-7.0,-11.0,29.94,WSW,252,0.0,-999.0,84,-99.99,,,-99.99,,2013-02-05 06:01:00,
2013-02-05 01:11:00,-7.0,-11.0,29.94,WSW,252,0.0,-999.0,84,-99.99,,,-99.99,,2013-02-05 06:11:00,
2013-02-05 01:21:00,-7.0,-11.0,29.94,WSW,252,0.0,-999.0,83,-99.99,,,-99.99,,2013-02-05 06:21:00,
2013-02-05 01:32:00,-7.0,-11.0,29.93,WSW,252,0.0,-999.0,83,-99.99,,,-99.99,,2013-02-05 06:32:00,
2013-02-05 01:42:00,-7.0,-11.0,29.93,WSW,252,0.0,-999.0,83,-99.99,,,-99.99,,2013-02-05 06:42:00,
2013-02-05 01:51:00,-7.0,-11.0,29.93,WSW,252,0.0,-999.0,84,-99.99,,,-99.99,,2013-02-05 06:51:00,
2013-02-05 02:01:00,-6.0,-10.0,29.93,WSW,252,0.0,-999.0,84,-99.99,,,-99.99,,2013-02-05 07:01:00,
2013-02-05 02:11:00,-6.0,-10.0,29.93,WSW,252,0.0,-999.0,84,-99.99,,,-99.99,,2013-02-05 07:11:00,
2013-02-05 02:22:00,-6.0,-10.0,29.92,WSW,252,0.0,-999.0,84,-99.99,,,-99.99,,2013-02-05 07:22:00,
2013-02-05 02:32:00,-6.0,-10.0,29.92,WSW,252,0.0,-999.0,84,-99.99,,,-99.99,,2013-02-05 07:32:00,
2013-02-05 02:42:00,-6.0,-10.0,29.92,WSW,252,0.0,-999.0,84,-99.99,,,-99.99,,2013-02-05 07:42:00,
2013-02-05 02:52:00,-6.0,-9.0,29.91,WSW,252,0.0,-999.0,85,-99.99,,,-99.99,,2013-02-05 07:52:00,
2013-02-05 03:01:00,-5.0,-8.0,29.90,WSW,249,0.0,-999.0,85,-99.99,,,-99.99,,2013-02-05 08:01:00,
2013-02-05 03:11:00,-5.0,-8.0,29.90,WSW,249,0.0,-999.0,85,-99.99,,,-99.99,,2013-02-05 08:11:00,
2013-02-05 03:21:00,-4.0,-7.0,29.90,SSW,194,1.0,-999.0,87,-99.99,,,-99.99,,2013-02-05 08:21:00,
2013-02-05 03:31:00,1.0,-2.0,29.90,South,187,3.0,-999.0,85,-99.99,,,-99.99,,2013-02-05 08:31:00,
2013-02-05 03:41:00,1.0,-2.0,29.90,South,187,3.0,-999.0,85,-99.99,,,-99.99,,2013-02-05 08:41:00,
2013-02-05 03:52:00,2.0,-2.0,29.89,SSW,193,3.0,-999.0,81,-99.99,,,-99.99,,2013-02-05 08:52:00,
2013-02-05 04:02:00,3.0,-2.0,29.88,SSW,192,3.0,-999.0,78,-99.99,,,-99.99,,2013-02-05 09:02:00,
2013-02-05 04:11:00,3.0,-3.0,29.87,SSW,194,3.0,-999.0,76,-99.99,,,-99.99,,2013-02-05 09:11:00,
2013-02-05 04:21:00,3.0,-3.0,29.87,SSW,194,3.0,-999.0,76,-99.99,,,-99.99,,2013-02-05 09:21:00,
2013-02-05 04:32:00,4.0,-2.0,29.85,SSW,192,3.0,-999.0,75,-99.99,,,-99.99,,2013-02-05 09:32:00,
2013-02-05 04:42:00,4.0,-2.0,29.85,SSW,192,3.0,-999.0,75,-99.99,,,-99.99,,2013-02-05 09:42:00,
2013-02-05 04:51:00,4.0,-2.0,29.84,SSW,192,3.0,-999.0,75,-99.99,,,-99.99,,2013-02-05 09:51:00,
2013-02-05 05:02:00,4.0,-1.0,29.83,SSW,194,4.0,-999.0,78,-99.99,,,-99.99,,2013-02-05 10:02:00,
2013-02-05 05:11:00,4.0,-1.0,29.82,SSW,196,3.0,-999.0,80,-99.99,,,-99.99,,2013-02-05 10:11:00,
2013-02-05 05:21:00,4.0,-1.0,29.82,SSW,196,3.0,-999.0,80,-99.99,,,-99.99,,2013-02-05 10:21:00,
2013-02-05 05:32:00,4.0,0.0,29.83,SSW,203,2.0,-999.0,83,-99.99,,,-99.99,,2013-02-05 10:32:00,
2013-02-05 05:42:00,4.0,0.0,29.83,SSW,203,2.0,-999.0,83,-99.99,,,-99.99,,2013-02-05 10:42:00,
2013-02-05 05:52:00,4.0,1.0,29.83,SSW,209,1.0,-999.0,85,-99.99,,,-99.99,,2013-02-05 10:52:00,
2013-02-05 06:01:00,4.0,1.0,29.82,SSW,206,2.0,-999.0,85,-99.99,,,-99.99,,2013-02-05 11:01:00,
2013-02-05 06:11:00,4.0,1.0,29.82,SSW,206,2.0,-999.0,85,-99.99,,,-99.99,,2013-02-05 11:11:00,
2013-02-05 06:22:00,4.0,1.0,29.82,SSW,197,2.0,-999.0,85,-99.99,,,-99.99,,2013-02-05 11:22:00,
2013-02-05 06:32:00,4.0,1.0,29.81,SSW,194,2.0,-999.0,86,-99.99,,,-99.99,,2013-02-05 11:32:00,
2013-02-05 06:42:00,4.0,1.0,29.81,SSW,194,2.0,-999.0,86,-99.99,,,-99.99,,2013-02-05 11:42:00,
2013-02-05 06:52:00,5.0,2.0,29.80,SSW,194,3.0,-999.0,87,-99.99,,,-99.99,,2013-02-05 11:52:00,
2013-02-05 07:01:00,5.0,2.0,29.79,SSW,193,4.0,-999.0,87,-99.99,,,-99.99,,2013-02-05 12:01:00,
2013-02-05 07:12:00,5.0,2.0,29.79,SSW,193,4.0,-999.0,87,-99.99,,,-99.99,,2013-02-05 12:12:00,
2013-02-05 07:22:00,5.0,2.0,29.78,South,191,4.0,-999.0,86,-99.99,,,-99.99,,2013-02-05 12:22:00,
2013-02-05 07:32:00,6.0,3.0,29.77,SSW,196,4.0,-999.0,87,-99.99,,,-99.99,,2013-02-05 12:32:00,
2013-02-05 07:42:00,6.0,3.0,29.77,SSW,196,4.0,-999.0,87,-99.99,,,-99.99,,2013-02-05 12:42:00,
2013-02-05 07:52:00,6.0,3.0,29.77,SSW,194,3.0,-999.0,87,-99.99,,,-99.99,,2013-02-05 12:52:00,
2013-02-05 08:01:00,6.0,3.0,29.77,SSW,196,3.0,-999.0,87,-99.99,,,-99.99,,2013-02-05 13:01:00,
2013-02-05 08:12:00,6.0,3.0,29.77,SSW,196,3.0,-999.0,87,-99.99,,,-99.99,,2013-02-05 13:12:00,
2013-02-05 08:22:00,6.0,3.0,29.77,SSW,192,4.0,-999.0,86,-99.99,,,-99.99,,2013-02-05 13:22:00,
2013-02-05 08:32:00,6.0,3.0,29.76,South,187,4.0,-999.0,87,-99.99,,,-99.99,,2013-02-05 13:32:00,
2013-02-05 08:42:00,6.0,3.0,29.76,South,187,4.0,-999.0,87,-99.99,,,-99.99,,2013-02-05 13:42:00,
2013-02-05 08:51:00,6.0,3.0,29.77,SSW,212,4.0,-999.0,86,-99.99,,,-99.99,,2013-02-05 13:51:00,
2013-02-05 09:01:00,6.0,3.0,29.76,SSW,199,3.0,-999.0,86,-99.99,,,-99.99,,2013-02-05 14:01:00,
2013-02-05 09:12:00,6.0,3.0,29.76,SSW,199,3.0,-999.0,86,-99.99,,,-99.99,,2013-02-05 14:12:00,
2013-02-05 09:21:00,6.0,3.0,29.76,SSW,198,3.0,-999.0,86,-99.99,,,-99.99,,2013-02-05 14:21:00,
2013-02-05 09:32:00,6.0,3.0,29.76,SSW,194,2.0,-999.0,86,-99.99,,,-99.99,,2013-02-05 14:32:00,
2013-02-05 09:42:00,6.0,3.0,29.76,SSW,194,2.0,-999.0,86,-99.99,,,-99.99,,2013-02-05 14:42:00,
2013-02-05 09:52:00,7.0,4.0,29.77,SSW,200,1.0,-999.0,86,-99.99,,,-99.99,,2013-02-05 14:52:00,
2013-02-05 10:02:00,7.0,4.0,29.76,SSW,199,2.0,-999.0,86,-99.99,,,-99.99,,2013-02-05 15:02:00,
2013-02-05 10:11:00,7.0,4.0,29.76,SSW,199,2.0,-999.0,86,-99.99,,,-99.99,,2013-02-05 15:11:00,
2013-02-05 10:21:00,8.0,5.0,29.76,WSW,240,3.0,-999.0,86,-99.99,,,-99.99,,2013-02-05 15:21:00,
2013-02-05 10:32:00,8.0,5.0,29.76,SSW,196,1.0,-999.0,86,-99.99,,,-99.99,,2013-02-05 15:32:00,
2013-02-05 10:41:00,8.0,5.0,29.76,SSW,196,1.0,-999.0,86,-99.99,,,-99.99,,2013-02-05 15:41:00,
2013-02-05 10:52:00,9.0,6.0,29.76,SSW,207,2.0,-999.0,86,-99.99,,,-99.99,,2013-02-05 15:52:00,
2013-02-05 11:01:00,10.0,7.0,29.76,WSW,251,1.0,-999.0,86,-99.99,,,-99.99,,2013-02-05 16:01:00,
2013-02-05 11:11:00,10.0,7.0,29.76,WSW,251,1.0,-999.0,86,-99.99,,,-99.99,,2013-02-05 16:11:00,
2013-02-05 11:22:00,11.0,7.0,29.76,WNW,296,1.0,-999.0,85,-99.99,,,-99.99,,2013-02-05 16:22:00,
2013-02-05 11:32:00,12.0,8.0,29.76,NW,321,3.0,-999.0,84,-99.99,,,-99.99,,2013-02-05 16:32:00,
2013-02-05 11:42:00,12.0,8.0,29.76,NW,321,3.0,-999.0,84,-99.99,,,-99.99,,2013-02-05 16:42:00,
2013-02-05 11:51:00,14.0,10.0,29.76,West,281,3.0,-999.0,83,-99.99,,,-99.99,,2013-02-05 16:51:00,
2013-02-05 12:01:00,15.0,10.0,29.77,NW,309,3.0,-999.0,81,-99.99,,,-99.99,,2013-02-05 17:01:00,
2013-02-05 12:11:00,15.0,10.0,29.77,NW,309,3.0,-999.0,81,-99.99,,,-99.99,,2013-02-05 17:11:00,
2013-02-05 12:22:00,17.0,12.0,29.77,West,277,3.0,-999.0,79,-99.99,,,-99.99,,2013-02-05 17:22:00,
2013-02-05 12:32:00,18.0,12.0,29.78,NNW,332,3.0,-999.0,78,-99.99,,,-99.99,,2013-02-05 17:32:00,
2013-02-05 12:42:00,18.0,12.0,29.78,NNW,332,3.0,-999.0,78,-99.99,,,-99.99,,2013-02-05 17:42:00,
2013-02-05 12:52:00,18.0,12.0,29.78,NW,313,4.0,-999.0,78,-99.99,,,-99.99,,2013-02-05 17:52:00,
2013-02-05 13:02:00,18.0,11.0,29.78,NNW,331,7.0,-999.0,75,-99.99,,,-99.99,,2013-02-05 18:02:00,
2013-02-05 13:11:00,18.0,11.0,29.78,NNW,331,7.0,-999.0,75,-99.99,,,-99.99,,2013-02-05 18:11:00,
2013-02-05 13:22:00,19.0,12.0,29.78,NNW,344,6.0,-999.0,74,-99.99,,,-99.99,,2013-02-05 18:22:00,
2013-02-05 13:32:00,19.0,12.0,29.79,WNW,295,6.0,-999.0,73,-99.99,,,-99.99,,2013-02-05 18:32:00,
2013-02-05 13:42:00,19.0,12.0,29.79,WNW,295,6.0,-999.0,73,-99.99,,,-99.99,,2013-02-05 18:42:00,
2013-02-05 13:52:00,20.0,12.0,29.80,NNW,327,6.0,-999.0,72,-99.99,,,-99.99,,2013-02-05 18:52:00,
2013-02-05 14:02:00,19.0,11.0,29.80,NNW,327,6.0,-999.0,72,-99.99,,,-99.99,,2013-02-05 19:02:00,
2013-02-05 14:11:00,19.0,11.0,29.80,NNW,327,6.0,-999.0,72,-99.99,,,-99.99,,2013-02-05 19:11:00,
2013-02-05 14:21:00,19.0,12.0,29.81,NW,317,6.0,-999.0,73,-99.99,,,-99.99,,2013-02-05 19:21:00,
2013-02-05 14:32:00,19.0,11.0,29.82,NNE,20,8.0,-999.0,72,-99.99,,,-99.99,,2013-02-05 19:32:00,
2013-02-05 14:42:00,19.0,11.0,29.82,NNE,20,8.0,-999.0,72,-99.99,,,-99.99,,2013-02-05 19:42:00,
2013-02-05 14:52:00,19.0,12.0,29.82,North,360,7.0,-999.0,75,-99.99,,,-99.99,,2013-02-05 19:52:00,
2013-02-05 15:01:00,20.0,13.0,29.83,North,355,7.0,-999.0,75,-99.99,,,-99.99,,2013-02-05 20:01:00,
2013-02-05 15:11:00,20.0,13.0,29.83,North,355,7.0,-999.0,75,-99.99,,,-99.99,,2013-02-05 20:11:00,
2013-02-05 15:21:00,20.0,14.0,29.83,NNW,328,5.0,-999.0,76,-99.99,,,-99.99,,2013-02-05 20:21:00,
2013-02-05 15:32:00,20.0,14.0,29.84,North,360,5.0,-999.0,76,-99.99,,,-99.99,,2013-02-05 20:32:00,
2013-02-05 15:42:00,20.0,14.0,29.84,North,360,5.0,-999.0,76,-99.99,,,-99.99,,2013-02-05 20:42:00,
2013-02-05 15:52:00,19.0,13.0,29.85,North,351,6.0,-999.0,78,-99.99,,,-99.99,,2013-02-05 20:52:00,
2013-02-05 16:02:00,19.0,13.0,29.85,North,351,6.0,-999.0,78,-99.99,,,-99.99,,2013-02-05 21:02:00,
2013-02-05 16:11:00,19.0,13.0,29.85,North,351,6.0,-999.0,78,-99.99,,,-99.99,,2013-02-05 21:11:00,
2013-02-05 16:22:00,19.0,14.0,29.87,NNW,343,5.0,-999.0,82,-99.99,,,-99.99,,2013-02-05 21:22:00,
2013-02-05 16:32:00,19.0,15.0,29.88,ENE,61,6.0,-999.0,84,-99.99,,,-99.99,,2013-02-05 21:32:00,
2013-02-05 16:42:00,19.0,15.0,29.88,ENE,61,6.0,-999.0,84,-99.99,,,-99.99,,2013-02-05 21:42:00,
2013-02-05 16:52:00,18.0,14.0,29.88,North,360,7.0,-999.0,85,-99.99,,,-99.99,,2013-02-05 21:52:00,
2013-02-05 17:01:00,18.0,14.0,29.89,North,5,6.0,-999.0,84,-99.99,,,-99.99,,2013-02-05 22:01:00,
2013-02-05 17:11:00,18.0,14.0,29.89,North,5,6.0,-999.0,84,-99.99,,,-99.99,,2013-02-05 22:11:00,
2013-02-05 17:21:00,17.0,13.0,29.90,NNW,348,6.0,-999.0,83,-99.99,,,-99.99,,2013-02-05 22:21:00,
2013-02-05 17:32:00,17.0,13.0,29.91,NNW,334,5.0,-999.0,84,-99.99,,,-99.99,,2013-02-05 22:32:00,
2013-02-05 17:42:00,17.0,13.0,29.91,NNW,334,5.0,-999.0,84,-99.99,,,-99.99,,2013-02-05 22:42:00,
2013-02-05 17:51:00,17.0,13.0,29.91,NNW,345,5.0,-999.0,84,-99.99,,,-99.99,,2013-02-05 22:51:00,
2013-02-05 18:02:00,16.0,13.0,29.92,NNW,342,7.0,-999.0,86,-99.99,,,-99.99,,2013-02-05 23:02:00,
2013-02-05 18:11:00,16.0,13.0,29.92,NNW,342,7.0,-999.0,86,-99.99,,,-99.99,,2013-02-05 23:11:00,
2013-02-05 18:22:00,16.0,12.0,29.94,North,350,7.0,-999.0,84,-99.99,,,-99.99,,2013-02-05 23:22:00,
2013-02-05 18:32:00,15.0,11.0,29.95,NW,324,6.0,-999.0,83,-99.99,,,-99.99,,2013-02-05 23:32:00,
2013-02-05 18:42:00,15.0,11.0,29.95,NW,324,6.0,-999.0,83,-99.99,,,-99.99,,2013-02-05 23:42:00,
2013-02-05 18:52:00,15.0,11.0,29.96,NW,312,5.0,-999.0,83,-99.99,,,-99.99,,2013-02-05 23:52:00,
2013-02-05 19:02:00,14.0,9.0,29.97,North,9,8.0,-999.0,81,-99.99,,,-99.99,,2013-02-06 00:02:00,
2013-02-05 19:12:00,14.0,9.0,29.97,North,9,8.0,-999.0,81,-99.99,,,-99.99,,2013-02-06 00:12:00,
2013-02-05 19:22:00,14.0,10.0,29.99,North,355,6.0,-999.0,82,-99.99,,,-99.99,,2013-02-06 00:22:00,
2013-02-05 19:32:00,13.0,8.0,29.99,NNW,327,5.0,-999.0,79,-99.99,,,-99.99,,2013-02-06 00:32:00,
2013-02-05 19:42:00,13.0,8.0,29.99,NNW,327,5.0,-999.0,79,-99.99,,,-99.99,,2013-02-06 00:42:00,
2013-02-05 19:52:00,13.0,8.0,30.01,NW,313,6.0,-999.0,79,-99.99,,,-99.99,,2013-02-06 00:52:00,
2013-02-05 20:02:00,12.0,6.0,30.02,NNW,341,8.0,-999.0,76,-99.99,,,-99.99,,2013-02-06 01:02:00,
2013-02-05 20:11:00,12.0,6.0,30.02,NNW,341,8.0,-999.0,76,-99.99,,,-99.99,,2013-02-06 01:11:00,
2013-02-05 20:22:00,12.0,6.0,30.02,NW,321,5.0,-999.0,78,-99.99,,,-99.99,,2013-02-06 01:22:00,
2013-02-05 20:32:00,12.0,7.0,30.02,NW,325,3.0,-999.0,79,-99.99,,,-99.99,,2013-02-06 01:32:00,
2013-02-05 20:42:00,12.0,7.0,30.02,NW,325,3.0,-999.0,79,-99.99,,,-99.99,,2013-02-06 01:42:00,
2013-02-05 20:52:00,11.0,6.0,30.03,NW,319,2.0,-999.0,80,-99.99,,,-99.99,,2013-02-06 01:52:00,
2013-02-05 21:01:00,11.0,6.0,30.03,NW,319,2.0,-999.0,80,-99.99,,,-99.99,,2013-02-06 02:01:00,
2013-02-05 21:11:00,11.0,6.0,30.03,NW,319,2.0,-999.0,80,-99.99,,,-99.99,,2013-02-06 02:11:00,
2013-02-05 21:22:00,11.0,6.0,30.03,NW,322,1.0,-999.0,80,-99.99,,,-99.99,,2013-02-06 02:22:00,
2013-02-05 21:32:00,10.0,5.0,30.04,NNW,344,1.0,-999.0,80,-99.99,,,-99.99,,2013-02-06 02:32:00,
2013-02-05 21:42:00,10.0,5.0,30.04,NNW,344,1.0,-999.0,80,-99.99,,,-99.99,,2013-02-06 02:42:00,
2013-02-05 21:52:00,9.0,4.0,30.04,NNW,343,0.0,-999.0,81,-99.99,,,-99.99,,2013-02-06 02:52:00,
2013-02-05 22:02:00,8.0,3.0,30.04,NNW,343,0.0,-999.0,81,-99.99,,,-99.99,,2013-02-06 03:02:00,
2013-02-05 22:12:00,8.0,3.0,30.04,NNW,343,0.0,-999.0,81,-99.99,,,-99.99,,2013-02-06 03:12:00,
2013-02-05 22:22:00,6.0,1.0,30.06,NNW,343,0.0,-999.0,81,-99.99,,,-99.99,,2013-02-06 03:22:00,
2013-02-05 22:32:00,5.0,1.0,30.06,NNW,343,0.0,-999.0,84,-99.99,,,-99.99,,2013-02-06 03:32:00,
2013-02-05 22:42:00,5.0,1.0,30.06,NNW,343,0.0,-999.0,84,-99.99,,,-99.99,,2013-02-06 03:42:00,
2013-02-05 22:52:00,3.0,-1.0,30.06,NNW,343,0.0,-999.0,83,-99.99,,,-99.99,,2013-02-06 03:52:00,
2013-02-05 23:02:00,2.0,-2.0,30.06,NNW,343,0.0,-999.0,84,-99.99,,,-99.99,,2013-02-06 04:02:00,
2013-02-05 23:11:00,2.0,-2.0,30.06,NNW,343,0.0,-999.0,84,-99.99,,,-99.99,,2013-02-06 04:11:00,
2013-02-05 23:21:00,2.0,-1.0,30.07,NNW,343,0.0,-999.0,88,-99.99,,,-99.99,,2013-02-06 04:21:00,
2013-02-05 23:32:00,4.0,2.0,30.07,NNW,343,0.0,-999.0,89,-99.99,,,-99.99,,2013-02-06 04:32:00,
2013-02-05 23:42:00,4.0,2.0,30.07,NNW,343,0.0,-999.0,89,-99.99,,,-99.99,,2013-02-06 04:42:00,
2013-02-05 23:52:00,4.0,1.0,30.08,NNW,343,0.0,-999.0,87,-99.99,,,-99.99,,2013-02-06 04:52:00,